Location: Arroyo de Valdeoliva
(40.1604°N, 4.9878°W)
Time: 20:47:24
(UTC+00:00)

Cosmos 1825 Rocket - Visible Passes

Search period start: 16 March 2026 00:00
Search period end: 26 March 2026 00:00
Orbit: 598 x 622 km, 82.5° (Epoch: 16 March)

Date Brightness Start Highest point End Pass type
(mag) Time Alt. Az. Time Alt. Az. Time Alt. Az.
16 Mar 7.1 04:39:44 10° NE 04:40:56 11° ENE 04:42:08 10° E visible
17 Mar 6.5 04:52:34 10° NNE 04:55:41 19° ENE 04:58:46 10° ESE visible
17 Mar 4.4 18:58:03 10° SSW 19:02:23 56° W 19:06:45 10° N visible
18 Mar 5.6 05:06:24 10° NNE 05:10:20 31° ENE 05:14:13 10° SE visible
18 Mar 5.7 19:13:00 10° SW 19:16:58 32° WNW 19:20:57 10° NNW visible
19 Mar 4.3 05:20:35 10° N 05:24:54 56° E 05:29:09 10° SSE visible
19 Mar 6.7 19:28:27 10° WSW 19:31:37 19° WNW 19:34:47 10° NNW visible
20 Mar 3.5 05:35:01 10° N 05:39:23 81° W 05:43:42 10° S visible
20 Mar 7.2 19:45:01 10° W 19:46:21 11° WNW 19:47:40 10° NW visible
21 Mar 6.7 04:13:20 10° NE 04:15:53 15° ENE 04:18:24 10° ESE visible
21 Mar 3.8 05:49:39 10° NNW 05:53:48 44° W 05:57:54 10° SSW visible
22 Mar 5.9 04:26:56 10° NNE 04:30:34 25° ENE 04:34:10 10° SE visible
23 Mar 4.7 04:40:59 10° N 04:45:10 44° ENE 04:49:17 10° SSE visible
24 Mar 3.6 04:55:19 10° N 04:59:41 80° E 05:03:59 10° S visible
24 Mar 6.9 19:04:12 10° WSW 19:06:31 14° WNW 19:08:51 10° NW visible
25 Mar 6.8 03:34:21 10° NE 03:36:04 12° ENE 03:37:44 10° E visible
25 Mar 3.5 05:09:51 10° NNW 05:14:07 56° W 05:18:19 10° S visible
